ギブス彗星

C/2007 T5 ( Gibbs )

English version
Home page
Total 6,336 html files since Dec. 4, 1995
Updated on June 16, 2008

---------------------------------------------------------------------

・ プロフィール

発見日 2007年10月13日
発見光度 18.2等
発見者 A. R. Gibbs (Catalina Sky Survey)

・ 写真集

・ 軌道要素

Epoch 2008 May 14.0 TT = JDT 2454600.5
T 2008 May 24.17653 TT                                  MPC
q   4.0493399            (2000.0)            P               Q
z  +0.0213866      Peri.   34.40574     -0.65183029     -0.35104034
 +/-0.0000010      Node   109.84287     +0.42831225     -0.90191446
e   0.9133983      Incl.   45.61513     +0.62583216     +0.25163661

・ 星図

・ 光度変化

        m1 = 8.5 + 5 logΔ + 10.0 log r

---------------------------------------------------------------------

軌道要素はM.P.E.C. 2007-Y07に掲載されたものです。
星図はステラナビゲータ Ver.8 (アストロアーツ) で作成したものです。
光度グラフはComet for Windowsで作成したものです。

---------------------------------------------------------------------

Copyright(C) 1995-2008 Seiichi Yoshida (comet@aerith.net). All rights reserved.